• In Russia
  • List of Countries
  • For 7 days
  • Water Temperature
  • Satellite Maps
  • Weather Map
  • Weather Widgets
  • user-avatar
    Login

    Hourly Weather Bansko

    Today, 20 July, Friday

    Time Temperature Precipitation Wind Pressure Humidity
    00:00 +18°C° 0 mm 2 mps 718 mmHg 89%
    01:00 +18°C° 0 mm 2 mps 718 mmHg 90%
    02:00 +19°C° 0 mm 1 mps 718 mmHg 91%
    03:00 +18°C° 0 mm 1 mps 718 mmHg 92%
    04:00 +18°C° 0 mm 1 mps 718 mmHg 92%
    05:00 +18°C° 0 mm 1 mps 718 mmHg 93%
    06:00 +19°C° 0 mm 2 mps 718 mmHg 85%
    07:00 +21°C° 0 mm 2 mps 718 mmHg 78%
    08:00 +24°C° 0 mm 2 mps 718 mmHg 70%
    09:00 +25°C° 0 mm 2 mps 718 mmHg 65%
    10:00 +26°C° 0 mm 3 mps 718 mmHg 60%
    11:00 +27°C° 0 mm 3 mps 719 mmHg 55%
    12:00 +28°C° 0 mm 3 mps 719 mmHg 52%
    13:00 +29°C° 0 mm 3 mps 718 mmHg 49%
    14:00 +29°C° 0 mm 4 mps 719 mmHg 48%
    15:00 +29°C° 0 mm 3 mps 719 mmHg 47%
    16:00 +29°C° 0 mm 3 mps 719 mmHg 46%
    17:00 +29°C° 0 mm 3 mps 719 mmHg 46%
    18:00 +27°C° 0 mm 2 mps 719 mmHg 53%
    19:00 +25°C° 0 mm 2 mps 718 mmHg 60%
    20:00 +23°C° 0 mm 2 mps 718 mmHg 67%
    21:00 +21°C° 0 mm 2 mps 719 mmHg 70%
    22:00 +20°C° 0 mm 2 mps 719 mmHg 74%
    23:00 +20°C° 0 mm 1 mps 719 mmHg 78%

    Tomorrow, 21 July, Saturday

    Time Temperature Precipitation Wind Pressure Humidity
    00:00 +19°C° 0 mm 1 mps 719 mmHg 79%
    01:00 +19°C° 0 mm 1 mps 719 mmHg 79%
    02:00 +18°C° 0 mm 1 mps 719 mmHg 80%
    03:00 +18°C° 0 mm 1 mps 719 mmHg 79%
    04:00 +16°C° 0 mm 1 mps 719 mmHg 79%
    05:00 +16°C° 0 mm 1 mps 719 mmHg 78%
    06:00 +20°C° 0 mm 1 mps 719 mmHg 68%
    07:00 +22°C° 0 mm 1 mps 720 mmHg 58%
    08:00 +25°C° 0 mm 1 mps 720 mmHg 49%
    09:00 +27°C° 0 mm 2 mps 720 mmHg 43%
    10:00 +28°C° 0 mm 2 mps 720 mmHg 37%
    11:00 +30°C° 0 mm 2 mps 720 mmHg 30%
    12:00 +31°C° 0 mm 2 mps 720 mmHg 29%
    13:00 +33°C° 0 mm 3 mps 720 mmHg 27%
    14:00 +34°C° 0 mm 3 mps 719 mmHg 25%
    15:00 +34°C° 0 mm 3 mps 719 mmHg 26%
    16:00 +34°C° 0 mm 3 mps 719 mmHg 26%
    17:00 +34°C° 0 mm 3 mps 719 mmHg 27%
    18:00 +30°C° 0 mm 3 mps 719 mmHg 34%
    19:00 +27°C° 0 mm 2 mps 719 mmHg 41%
    20:00 +25°C° 0 mm 1 mps 718 mmHg 48%
    21:00 +24°C° 0 mm 1 mps 719 mmHg 49%
    22:00 +23°C° 0 mm 1 mps 719 mmHg 50%
    23:00 +22°C° 0 mm 1 mps 719 mmHg 51%

    Day after tomorrow, 22 July, Sunday

    Time Temperature Precipitation Wind Pressure Humidity
    00:00 +21°C° 0 mm 1 mps 719 mmHg 51%
    01:00 +21°C° 0 mm 1 mps 719 mmHg 51%
    02:00 +21°C° 0 mm 1 mps 719 mmHg 51%
    03:00 +21°C° 0 mm 1 mps 719 mmHg 52%
    04:00 +21°C° 0 mm 1 mps 718 mmHg 53%
    05:00 +20°C° 0 mm 1 mps 718 mmHg 55%
    06:00 +23°C° 0 mm 1 mps 719 mmHg 50%
    07:00 +26°C° 0 mm 1 mps 719 mmHg 45%
    08:00 +28°C° 0 mm 1 mps 719 mmHg 41%
    09:00 +30°C° 0 mm 1 mps 719 mmHg 37%
    10:00 +32°C° 0 mm 1 mps 719 mmHg 32%
    11:00 +34°C° 0 mm 1 mps 719 mmHg 28%
    12:00 +35°C° 0 mm 2 mps 718 mmHg 27%
    13:00 +36°C° 0 mm 2 mps 718 mmHg 26%
    14:00 +36°C° 0 mm 3 mps 717 mmHg 26%
    15:00 +36°C° 0 mm 2 mps 717 mmHg 27%
    16:00 +35°C° 0 mm 2 mps 717 mmHg 28%
    17:00 +35°C° 0 mm 2 mps 716 mmHg 30%
    18:00 +32°C° 0 mm 2 mps 716 mmHg 35%
    19:00 +29°C° 0 mm 2 mps 716 mmHg 41%
    20:00 +27°C° 0 mm 1 mps 716 mmHg 46%
    21:00 +26°C° 0 mm 1 mps 716 mmHg 50%
    22:00 +24°C° 0 mm 1 mps 717 mmHg 54%
    23:00 +23°C° 0 mm 1 mps 717 mmHg 58%

    23 July, Monday

    Time Temperature Precipitation Wind Pressure Humidity
    00:00 +23°C° 0 mm 1 mps 717 mmHg 59%
    01:00 +22°C° 0 mm 1 mps 716 mmHg 61%
    02:00 +22°C° 0 mm 1 mps 716 mmHg 62%
    03:00 +21°C° 0 mm 1 mps 716 mmHg 62%
    04:00 +21°C° 0 mm 1 mps 716 mmHg 63%
    05:00 +21°C° 0 mm 1 mps 716 mmHg 63%
    06:00 +23°C° 0 mm 1 mps 716 mmHg 57%
    07:00 +26°C° 0 mm 1 mps 716 mmHg 50%
    08:00 +28°C° 0 mm 1 mps 716 mmHg 43%
    09:00 +30°C° 0 mm 1 mps 716 mmHg 39%
    10:00 +32°C° 0 mm 1 mps 716 mmHg 34%
    11:00 +34°C° 0 mm 2 mps 716 mmHg 29%
    12:00 +35°C° 0 mm 2 mps 715 mmHg 27%
    13:00 +36°C° 0 mm 2 mps 715 mmHg 26%
    14:00 +36°C° 0 mm 2 mps 714 mmHg 24%
    15:00 +35°C° 0.1 mm 2 mps 714 mmHg 28%
    16:00 +34°C° 0.1 mm 2 mps 714 mmHg 32%
    17:00 +32°C° 0.1 mm 2 mps 713 mmHg 35%
    18:00 +30°C° 0.2 mm 2 mps 713 mmHg 45%
    19:00 +27°C° 0.2 mm 2 mps 713 mmHg 56%
    20:00 +25°C° 0.2 mm 2 mps 713 mmHg 66%
    21:00 +24°C° 0.9 mm 2 mps 713 mmHg 72%
    22:00 +23°C° 0.9 mm 2 mps 713 mmHg 78%
    23:00 +21°C° 0.9 mm 2 mps 714 mmHg 84%

    24 July, Tuesday

    Time Temperature Precipitation Wind Pressure Humidity
    00:00 +20°C° 0.1 mm 2 mps 713 mmHg 84%
    01:00 +21°C° 0.1 mm 1 mps 713 mmHg 85%
    02:00 +20°C° 0.1 mm 1 mps 713 mmHg 86%
    03:00 +20°C° 0 mm 1 mps 713 mmHg 86%
    04:00 +19°C° 0 mm 1 mps 713 mmHg 87%
    05:00 +18°C° 0 mm 2 mps 713 mmHg 87%
    06:00 +19°C° 0 mm 2 mps 713 mmHg 81%
    07:00 +21°C° 0 mm 2 mps 713 mmHg 76%
    08:00 +23°C° 0 mm 2 mps 714 mmHg 70%
    09:00 +25°C° 0 mm 2 mps 714 mmHg 63%
    10:00 +26°C° 0 mm 2 mps 714 mmHg 55%
    11:00 +28°C° 0 mm 2 mps 714 mmHg 48%
    12:00 +29°C° 0.2 mm 3 mps 714 mmHg 47%
    13:00 +29°C° 0.2 mm 3 mps 714 mmHg 46%
    14:00 +30°C° 0.2 mm 3 mps 714 mmHg 46%
    15:00 +29°C° 0.6 mm 3 mps 714 mmHg 51%
    16:00 +28°C° 0.6 mm 3 mps 714 mmHg 55%
    17:00 +27°C° 0.6 mm 3 mps 714 mmHg 60%
    18:00 +26°C° 0.4 mm 3 mps 714 mmHg 66%
    19:00 +24°C° 0.4 mm 2 mps 714 mmHg 71%
    20:00 +23°C° 0.4 mm 2 mps 714 mmHg 76%
    21:00 +21°C° 0.1 mm 2 mps 714 mmHg 80%
    22:00 +21°C° 0.1 mm 1 mps 715 mmHg 83%
    23:00 +20°C° 0.1 mm 1 mps 715 mmHg 87%

    25 July, Wednesday

    Time Temperature Precipitation Wind Pressure Humidity
    00:00 +20°C° 0.1 mm 1 mps 715 mmHg 87%
    01:00 +20°C° 0.1 mm 1 mps 715 mmHg 88%
    02:00 +19°C° 0.1 mm 1 mps 715 mmHg 89%
    03:00 +19°C° 0 mm 1 mps 715 mmHg 90%
    04:00 +19°C° 0 mm 1 mps 715 mmHg 90%
    05:00 +19°C° 0 mm 1 mps 715 mmHg 91%
    06:00 +20°C° 0 mm 2 mps 716 mmHg 86%
    07:00 +21°C° 0 mm 2 mps 716 mmHg 80%
    08:00 +23°C° 0 mm 2 mps 716 mmHg 75%
    09:00 +25°C° 0.1 mm 2 mps 716 mmHg 69%
    10:00 +26°C° 0.1 mm 2 mps 716 mmHg 63%
    11:00 +27°C° 0.1 mm 2 mps 717 mmHg 57%
    12:00 +28°C° 0.4 mm 2 mps 716 mmHg 55%
    13:00 +29°C° 0.4 mm 2 mps 716 mmHg 54%
    14:00 +29°C° 0.4 mm 2 mps 716 mmHg 53%
    15:00 +29°C° 0.9 mm 2 mps 716 mmHg 54%
    16:00 +29°C° 0.9 mm 2 mps 716 mmHg 56%
    17:00 +29°C° 0.9 mm 2 mps 716 mmHg 57%
    18:00 +27°C° 0.5 mm 2 mps 716 mmHg 64%
    19:00 +25°C° 0.5 mm 2 mps 716 mmHg 70%
    20:00 +23°C° 0.5 mm 1 mps 716 mmHg 77%
    21:00 +22°C° 0 mm 1 mps 716 mmHg 80%
    22:00 +21°C° 0 mm 1 mps 716 mmHg 83%
    23:00 +20°C° 0 mm 1 mps 717 mmHg 86%
    Show more